Volver al catálogo

FENGYUN 1C DEB

ActivoSSO
NORAD 29888·DEBRIS·🇨🇳 China

Lanzado May 10, 1999 desde Taiyuan Satellite Launch Center

Loading…

Próximos Pases (próximas 24 horas)

TLE

ActualizadoSource: Space-Track

Época: Sep 14, 2026, 10:06 UTC

1 29888U 99025GJ  26257.42092139  .00000580  00000-0  20405-3 0  9999
2 29888  99.1746 106.0987 0272072 321.1204  37.0675 14.20570475 14151

Sigue FENGYUN 1C DEB en tiempo real con AllMySat

Download on the App Store